TimeMST,TemperatureF,Dew PointF,Humidity,Sea Level PressureIn,VisibilityMPH,Wind Direction,Wind SpeedMPH,Gust SpeedMPH,PrecipitationIn,Events,Conditions,WindDirDegrees,DateUTC
12:53 AM,55.9,41.0,57,30.09,10.0,Calm,Calm,-,N/A,,Clear,0,2012-11-19 07:53:00
1:53 AM,55.9,42.1,60,30.09,10.0,Calm,Calm,-,N/A,,Clear,0,2012-11-19 08:53:00
2:53 AM,54.0,42.1,64,30.09,10.0,Calm,Calm,-,N/A,,Clear,0,2012-11-19 09:53:00
3:53 AM,53.1,41.0,64,30.09,10.0,Calm,Calm,-,N/A,,Clear,0,2012-11-19 10:53:00
4:53 AM,53.1,39.9,61,30.10,10.0,Calm,Calm,-,N/A,,Clear,0,2012-11-19 11:53:00
5:53 AM,52.0,41.0,66,30.11,10.0,Calm,Calm,-,N/A,,Clear,0,2012-11-19 12:53:00
6:53 AM,51.1,41.0,68,30.14,10.0,Calm,Calm,-,N/A,,Clear,0,2012-11-19 13:53:00
7:53 AM,54.0,43.0,66,30.17,9.0,Calm,Calm,-,N/A,,Clear,0,2012-11-19 14:53:00
8:53 AM,62.1,42.1,48,30.18,10.0,Calm,Calm,-,N/A,,Clear,0,2012-11-19 15:53:00
9:53 AM,66.0,42.1,42,30.19,10.0,Calm,Calm,-,N/A,,Clear,0,2012-11-19 16:53:00
10:53 AM,69.1,42.1,38,30.18,10.0,West,3.5,-,N/A,,Clear,260,2012-11-19 17:53:00
11:53 AM,73.0,41.0,31,30.16,10.0,Calm,Calm,-,N/A,,Clear,0,2012-11-19 18:53:00
12:53 PM,75.0,41.0,29,30.14,10.0,Variable,3.5,-,N/A,,Clear,0,2012-11-19 19:53:00
1:53 PM,75.9,37.9,25,30.11,10.0,Calm,Calm,-,N/A,,Clear,0,2012-11-19 20:53:00
2:53 PM,75.9,37.9,25,30.10,10.0,Variable,4.6,-,N/A,,Clear,0,2012-11-19 21:53:00
3:53 PM,77.0,36.0,23,30.09,10.0,SSW,5.8,-,N/A,,Clear,210,2012-11-19 22:53:00
4:53 PM,75.9,36.0,23,30.09,10.0,SW,3.5,-,N/A,,Clear,220,2012-11-19 23:53:00
5:53 PM,71.1,39.0,31,30.10,10.0,Calm,Calm,-,N/A,,Clear,0,2012-11-20 00:53:00
6:53 PM,68.0,39.9,36,30.12,10.0,Calm,Calm,-,N/A,,Clear,0,2012-11-20 01:53:00
7:53 PM,66.0,39.0,37,30.13,10.0,North,3.5,-,N/A,,Clear,10,2012-11-20 02:53:00
8:53 PM,64.9,39.0,39,30.14,10.0,North,5.8,-,N/A,,Clear,10,2012-11-20 03:53:00
9:53 PM,64.9,39.0,39,30.13,10.0,NNE,4.6,-,N/A,,Clear,20,2012-11-20 04:53:00
10:53 PM,60.1,39.0,46,30.12,10.0,Calm,Calm,-,N/A,,Clear,0,2012-11-20 05:53:00
11:53 PM,57.0,39.9,53,30.11,10.0,Calm,Calm,-,N/A,,Clear,0,2012-11-20 06:53:00